Погода в Рочестере

США     43°10′59″N   77°37′16″W
темп.,
°C
ветер,
м/с
пор.,
м/с
влажн.,
%
обл.,
%
осадки,
мм/ч
давл.,
гПа
погр.,
м
27 июля, вт
вт2723:00+23зюз35712 0.0 1013100
02:00+21зюз34810 0.0 1014102
05:00+20зюз35760 0.0 1014127
08:00+21юз46685 0.0 1014193
11:00+26з356099 0.0 1014538
14:00+20сз4787100 3.3 1014274
17:00+20юз2387100 2.6 1014193
20:00+20ссз23831 2.6 1014372
28 июля, ср
ср2823:00+19вюв22870 0.0 1015113
02:00+18юв23890 0.0 1016133
05:00+17юв22890 0.0 1016117
08:00+18вюв228416 0.0 1018247
11:00+21всв337223 0.0 1018721
14:00+21св54685 0.0 1017746
17:00+22всв32601 0.0 1016602
20:00+22вюв1166100 0.0 101521
29 июля, чт
чт2923:00+20ю347134 0.0 101583
02:00+18ююв33795 0.0 101491
05:00+18ю238175 0.0 101384
08:00+20ю347493 0.0 1012160
11:00+25юз236087 0.0 1011418
14:00+26сз345753 0.0 1009985
17:00+27з475818 0.0 1007833
20:00+23зсз610807 0.4 1008666
30 июля, пт
пт3023:00+21сз588416 0.4 1009537
02:00+20ссз688852 0.7 1009560
05:00+18с788587 0.1 1011759
08:00+17с8988100 1.0 1013788
11:00+16с77610 0.1 1016947
14:00+19сз68450 0.1 10161656
17:00+21зсз693944 0.0 10151741
20:00+20зсз895128 0.0 10151241
31 июля, сб
сб3123:00+20сз89534 0.0 1017835
02:00+19сз675812 0.0 1016612
05:00+15зюз577267 0.0 1017270
08:00+16зюз586397 0.0 1018306
11:00+21з674974 0.0 1017929
14:00+23зсз574698 0.0 10151230
17:00+20зсз5765100 0.1 1015573
20:00+18ююз61182100 1.1 1013398